Terminal Aerodrome Forecast
Issued by NWS Quad Cities IA IL

Home | Current Version | Previous Version | Text Only | Print | Product List | Glossary On
Versions: 1 2 3 4 5 6 7 8 9 10 11 12 13 14 15 16 17 18 19 20 21 22 23 24 25 26 27 28 29 30 31 32 33 34 35 36 37 38 39 40 41 42 43 44 45 46 47 48 49 50
000
FTUS43 KDVN 170334 AAB
TAFDBQ
TAF AMD
KDBQ 170334Z 1704/1724 03005KT P6SM OVC008
     FM170600 04005KT 4SM BR OVC008
     FM171000 03005KT 3SM BR OVC004
     FM171500 04006KT P6SM BKN015
     FM171900 04004KT P6SM BKN035=

USA.gov is the U.S. government's official web portal to all federal, state and local government web resources and services.